Location: Bittelbronn
(48.4454°N, 8.5870°E)
Time: 17:23:24
(UTC+00:00)

SL-16 R/B - Pass Details

Date: 23 May 2024
Orbit: 985 x 1007 km, 99.7° (Epoch: 16 June)

Event Time Altitude Azimuth Distance (km) Brightness Sun altitude
Rises 01:47:31 0° 159° (SSE) 3,720 5.2 -13.7°
Reaches altitude 10° 01:49:59 10° 159° (SSE) 2,775 4.6 -13.4°
Maximum altitude 01:56:15 84° 72° (ENE) 1,018 2.6 -12.8°
Drops below altitude 10° 02:02:33 10° 345° (NNW) 2,793 5.4 -12.2°
Sets 02:05:02 0° 345° (NNW) 3,746 6.1 -11.9°
